CZ-7A R/B, 55132

Orbit data source: Space-Track

CZ-7A R/B, 55132 is space debris in HEO originally from a launch on Sun, 08 Jan 2023 UTC launched from the Wenchang Satellite Launch Center (WSC). Debris objects in space refer to the collection of defunct objects orbiting the Earth. Examples of debris include non-operational satellites, rocket bodies, and fragments generated from explosions, collisions, or faulty payload assembly.

Loading next visibility...
Identifier
55132, 2023-002B
Orbit
HEO
Country
Flag of CNCN / PRC
Related business
Manufacturer
CALT
Mission
Spacecraft
Bus & Motor
CZ-3A STAGE 3, Unknown motor
Mass
~2,800 kg wet, ~2,800 kg dry
Launch date (UTC)
2023-01-08 (3 years ago)
Launch vehicle
Unknown
Launch site
Wenchang Satellite Launch Center (WSC)
Object type
Payload
Rocket body
Debris
Shape & HBR
Cyl + 1 Nozzle, 6.2 m
Radar Cross Section
32.704 m², Large (>1 m²)

Expand to show TLE details & history
Last TLE update: 2 days ago

TLE from 2 days ago
0 CZ-7A R/B
1 55132U 23002B   26171.32958486  .00043115  36840-6  97888-3 0  9999
2 55132  16.4884 303.3355 5789488  20.1284 355.5000  4.45365238 43990
Epoch: 2026-06-20T07:54Z
TLE epoch observation values (Epoch: 2026-06-20T07:54:36.131Z)
Latitude
0.00002°
Longitude
-83.85074°
Altitude
343.012 km
Speed
9.647 km/s
True Right ascension
20h 13m 22s
True Declination
0° 00' 00"
Sunlit
Object was in full shadow at epoch
Visualization orbit readout
Latitude
Unknown
Longitude
Unknown
Altitude
Unknown
Speed
Unknown
Apparent Right ascension
Unknown
Apparent Declination
Unknown
Sunlit
N/A
Visualization observer readout
Local Sidereal Time
00:55:22
Azimuth
Unknown
Elevation
Unknown
Doppler factor
Unknown
Orbital elements
Apogee altitude
18,268.255 km
Perigee altitude
194.206 km
Semi-major axis
15,609.367 km
Eccentricity
0.57895
Inclination
16.4884°
RAAN
303.3355°
Arg. of periapsis
20.1284°
True anomaly
339.62326°
Mean anomaly
355.5°
Eccentric anomaly
349.39557°
Mean motion
1.11292 °/min
Orbital period
323.47 mins
BSTAR
0.00097888
Loading maneuver chart data...
Computing Atmospheric mass density...
Loading historical data...
Loading historical data...
Loading historical data...
Loading historical data...
Loading historical data...
Loading historical data...
Loading historical data...
Other satellites on launch #2 in the year 2023 (2023-01-08 UTC)

Documentation

Showing up to 5 results
|